Location: Armsheim
(49.8074°N, 8.0576°E)
Time: 05:40:33
(UTC+00:00)

Daily predictions for brighter satellites

Satellite Brightness Start Highest point End
(mag) Time Altitude Azimuth Time Altitude Azimuth Time Altitude Azimuth
Cosmos 2227 Rocket 2.5 00:01:52 10° NW 00:07:20 49° WSW 00:09:27 33° SSW
GEOS 3 Rocket 4.2 00:07:59 10° NE 00:13:07 57° NW 00:17:31 14° WSW
Cosmos 1238 Rocket 4.4 00:12:30 10° N 00:17:25 41° ENE 00:20:49 17° SE
IDEFIX/ARIANE 42P 4.1 00:14:11 10° NE 00:18:28 25° E 00:21:27 16° SE
Landsat 4 4.3 00:18:25 29° E 00:19:05 33° ENE 00:21:39 10° N
Cosmos 1441 Rocket 4.0 00:20:22 30° WSW 00:21:10 35° WNW 00:24:24 10° N
Meteor 2-2 Rocket 4.4 00:19:56 10° NNW 00:25:27 57° W 00:28:00 31° SSW
Cosmos 2221 3.1 00:22:08 10° N 00:26:20 52° ENE 00:28:33 25° SE
Cosmos 1315 Rocket 3.9 00:26:25 10° NW 00:29:41 27° W 00:30:17 26° WSW
SeaSat 1 4.3 00:26:23 10° ESE 00:30:35 29° NE 00:34:48 10° NNW
Okean 1 3.1 00:27:04 10° N 00:30:49 77° E 00:32:03 40° SSE
Cosmos 1125 Rocket 3.7 00:30:24 28° SW 00:33:08 65° WNW 00:38:23 10° NNE
Cosmos 1812 Rocket 3.6 00:28:57 10° N 00:33:20 77° ENE 00:35:20 31° SSE
Geosat 4.2 00:28:47 10° NNE 00:33:45 65° NW 00:36:37 25° SW
Meteor 1-26 Rocket 4.4 00:29:09 10° NNW 00:34:22 52° W 00:36:45 30° SSW
Nadezhda 1 Rocket 3.9 00:30:47 10° N 00:37:03 89° W 00:40:50 25° S
Cosmos 2150 Rocket 4.2 00:36:24 30° S 00:39:04 67° ESE 00:44:29 10° NNE
Meteor 2-6 Rocket 4.3 00:34:37 10° NNW 00:40:27 85° W 00:44:03 25° S
CENTAUR R/B 3.9 00:37:30 15° SE 00:40:28 21° ESE 00:45:14 10° ENE
H-2A R/B 2.2 00:41:17 40° S 00:42:32 72° WSW 00:46:28 10° NNW
Cosmos 2058 Rocket 4.4 00:39:03 10° NNW 00:42:45 26° W 00:44:04 23° WSW
Okean 1-7 Rocket 3.8 00:42:59 30° SSE 00:45:04 64° E 00:49:34 10° NNE
Cosmos 2322 Rocket 4.1 00:43:02 10° SE 00:46:47 19° E 00:50:36 10° ENE
Cosmos 614 Rocket 4.4 00:42:15 10° NW 00:47:02 43° WSW 00:48:55 30° SSW
Cosmos 1745 Rocket 4.0 00:44:17 26° S 00:48:07 84° E 00:54:31 10° N
Cosmos 1825 Rocket 4.3 00:46:00 24° SSE 00:48:15 44° E 00:52:26 10° NNE
ADEOS II 4.4 00:47:00 10° NE 00:49:50 14° E 00:52:39 10° ESE
ATLAS 5 CENTAUR R/B 2.6 00:46:31 10° NW 00:50:40 50° NE 00:55:48 10° ESE
BREEZE-M DEB (TANK) 4.5 00:50:23 10° W 00:50:49 12° W 00:50:49 12° W
MOZ.5/SAFIR/RUBIN 5/SL-8 4.4 00:52:02 13° SE 00:56:03 53° ENE 01:00:37 10° N
Cosmos 2263 Rocket 2.8 00:51:12 10° NW 00:56:24 39° WSW 00:58:41 27° SSW
Cosmos 1709 Rocket 4.1 00:57:16 23° S 01:01:27 78° E 01:07:46 10° NNE
CZ-2C R/B 3.2 00:56:52 10° N 01:01:33 56° WNW 01:04:01 26° SW
USA 32 4.2 01:00:07 28° SSW 01:02:52 62° W 01:08:04 10° N
Meteor 1-27 Rocket 4.4 00:57:13 10° N 01:03:04 56° ENE 01:08:51 10° SSE
Cosmos 2082 3.9 00:57:36 10° NW 01:03:07 53° WSW 01:06:25 23° S
Cosmos 2369 3.7 01:01:32 26° SSW 01:04:52 83° WNW 01:10:33 10° NNE
MSX 4.2 01:00:49 10° NNE 01:06:31 60° ESE 01:10:26 20° S
Cosmos 1602 Rocket 3.8 01:07:34 29° SW 01:09:34 57° WNW 01:13:52 10° N
Cosmos 2298 Rocket 4.1 01:07:44 26° SSW 01:10:48 75° WNW 01:16:09 10° NNE
Cosmos 1758 Rocket 4.4 01:09:37 24° SW 01:11:41 39° WNW 01:15:54 10° N
FENGYUN 3A 4.4 01:09:22 10° NNE 01:14:36 47° E 01:18:43 16° SSE
SL-16 R/B 2.7 01:13:38 21° S 01:17:16 51° ESE 01:22:45 10° NE
Cosmos 2219 4.0 01:13:22 10° NW 01:18:21 32° WSW 01:20:47 23° SSW
Cosmos 2333 Rocket 3.3 01:15:34 15° SSE 01:19:38 35° ESE 01:24:43 10° NE
USA 290 4.1 01:17:36 10° WNW 01:19:33 17° W 01:19:33 17° W
Meteor 1-10 Rocket 4.3 01:15:07 10° NNW 01:20:53 77° W 01:25:25 17° S
Spot 2 4.3 01:20:18 28° SSW 01:21:55 43° W 01:25:45 10° NNW
USA 276 3.4 01:22:20 20° SE 01:22:20 20° SE 01:24:04 10° E
Cosmos 1842 Rocket 4.2 01:18:19 10° N 01:22:39 53° ENE 01:26:55 10° SSE
BREEZE M DEB (TANK) 2.2 01:21:29 17° W 01:23:14 62° SSW 01:27:45 10° ESE
BREEZE-M DEB 4.1 01:09:10 10° W 01:24:06 85° S 01:28:00 10° ESE
ATLAS 2AS CENTAUR R/B 3.2 01:18:55 10° NW 01:25:00 36° WSW 01:29:12 18° S
Meteor 2-4 Rocket 4.4 01:21:12 10° N 01:26:26 50° ENE 01:31:37 10° SSE
Cosmos 44 Rocket 3.8 01:25:06 22° S 01:27:46 45° ESE 01:32:17 10° NE
Cosmos 1707 3.5 01:26:17 10° N 01:29:23 39° ENE 01:32:29 10° SSE
Cosmos 921 Rocket 3.9 01:25:34 10° NW 01:29:30 32° W 01:31:10 24° SW
Cosmos 1743 2.3 01:28:38 28° S 01:30:15 80° E 01:33:37 10° NNE
Cosmos 1980 Rocket 3.2 01:25:56 14° WSW 01:30:17 39° NW 01:35:34 10° NNE
NPP 3.7 01:28:09 10° NNE 01:33:35 86° ESE 01:37:32 19° SSW
Meteor 1-20 Rocket 4.3 01:33:05 20° SSW 01:37:15 82° WNW 01:43:01 10° N
Cosmos 2151 3.5 01:35:22 23° SW 01:37:34 42° WNW 01:41:31 10° N
Lacrosse 5 rocket 3.1 01:35:56 10° W 01:37:12 14° WSW 01:37:12 14° WSW
KORONAS-FOTON 3.8 01:35:40 10° N 01:39:12 67° E 01:42:14 13° SSE
Cosmos 1023 Rocket 4.4 01:34:22 10° NNW 01:39:33 82° WSW 01:44:45 10° SSE
CZ-2C R/B 4.1 01:37:53 17° SW 01:40:27 23° W 01:44:51 10° NW
Cosmos 1140 Rocket 3.4 01:36:26 10° NNW 01:41:38 84° WSW 01:46:48 10° SSE
Resurs 1-4 Rocket 2.6 01:38:26 10° NNE 01:43:41 57° E 01:48:25 13° S
Cosmos 1842 3.3 01:45:20 10° N 01:48:43 62° ENE 01:52:05 10° SSE
Cosmos 1076 Rocket 3.4 01:46:03 20° SSW 01:48:58 79° W 01:53:14 10° N
Cosmos 1844 Rocket 2.7 01:46:56 10° NW 01:52:31 64° WSW 01:58:01 10° SSE
SJ 16-02 4.4 01:50:01 10° N 01:52:44 16° NE 01:55:26 10° E
Cosmos 1238 Rocket 4.4 01:49:27 10° NNW 01:53:56 30° W 01:56:48 17° SW
Cosmos 2227 4.5 01:51:06 10° NW 01:56:33 48° WSW 02:01:59 10° S
Cosmos 407 Rocket 3.7 01:51:17 10° NNW 01:56:33 76° ENE 02:01:50 10° SSE
Cosmos 1844 3.7 01:51:12 10° NNW 01:56:51 66° WSW 02:02:31 10° SSE
CZ-2D R/B 2.3 01:52:03 10° NNE 01:57:16 67° ESE 02:02:07 12° S
IDEFIX/ARIANE 42P 2.9 01:53:11 10° N 01:58:13 52° WNW 02:02:09 16° SW
Cosmos 1151 Rocket 4.3 01:54:37 10° N 01:58:43 40° ENE 02:02:45 10° SE
EP 1 4.2 01:57:54 10° NW 02:00:30 69° SW 02:03:26 10° SE
Cosmos 2184 Rocket 4.3 01:54:20 10° S 02:00:40 73° E 02:07:03 10° NNE
H-2A R/B 2.0 01:57:47 10° NNE 02:02:03 80° WNW 02:05:29 16° SSW
Cosmos 2221 4.3 02:00:12 10° NW 02:03:01 17° W 02:04:55 13° WSW
Cosmos 1953 Rocket 3.9 02:04:16 17° SSW 02:07:24 49° WNW 02:11:37 10° N
ATLAS CENTAUR R/B 3.7 02:06:07 10° SE 02:07:25 12° ESE 02:08:45 10° E
SeaSat 1 2.5 02:02:55 10° SSE 02:07:44 58° WSW 02:12:35 10° NW
Cosmos 2360 Rocket 2.5 02:03:04 13° SSW 02:08:00 64° ESE 02:13:34 10° NE
Cosmos 1346 Rocket 3.7 02:09:59 16° SW 02:12:22 30° WNW 02:15:41 10° N
Cosmos 2278 3.8 02:08:06 15° SW 02:12:49 69° WNW 02:18:29 10° NNE
Cosmos 2154 Rocket 4.2 02:06:49 10° S 02:13:03 78° E 02:19:24 10° NNE
ARIANE 6 FM1 Upper Stage 4.2 02:10:46 10° S 02:14:02 25° ESE 02:17:19 10° ENE
Cosmos 1733 3.1 02:14:22 18° SW 02:16:18 44° WNW 02:19:11 10° N
Molniya-1 4.4 02:19:20 13° SW 02:22:33 72° NW 02:32:13 10° NE
Cosmos 2219 Rocket 2.9 02:17:22 10° S 02:22:43 49° ESE 02:28:06 10° NE
H-2A R/B 3.5 02:20:35 10° NNE 02:25:00 32° E 02:29:21 10° SSE
Cosmos 2074 Rocket 4.0 02:19:42 10° SSW 02:25:53 75° W 02:32:10 10° N
Cosmos 405 Rocket 4.1 02:26:12 10° SSE 02:29:03 29° E 02:31:55 10° NNE
CENTAUR R/B 2.6 02:24:36 12° SW 02:29:55 85° NW 02:37:12 10° NE
Cosmos 2322 Rocket 2.2 02:24:50 12° SSW 02:30:08 80° WNW 02:35:48 10° NNE
ADEOS II 2.1 02:24:52 10° NNE 02:30:09 89° ESE 02:35:24 10° SSW
ALOS 2.2 02:28:05 10° NNE 02:32:41 84° WNW 02:37:16 10° SSW
ATLAS 5 CENTAUR R/B 2.5 02:29:19 10° WNW 02:33:29 33° WSW 02:38:27 10° S
Meteor 2-13 Rocket 4.5 02:28:30 10° NNW 02:34:39 82° W 02:40:47 10° S
Meteor 1-28 Rocket 3.9 02:32:49 10° SSE 02:36:05 50° ENE 02:39:21 10° N
Meteor 1-18 Rocket 4.2 02:33:08 10° NNW 02:38:41 69° W 02:44:11 10° S
Cosmos 2251 Rocket 3.5 02:33:54 10° NNW 02:39:14 79° WSW 02:44:28 10° SSE
NOSS 3-2 (A) 3.4 02:37:49 10° SSW 02:42:49 63° SE 02:48:51 10° NE
DMSP B5D2-2 4.1 02:37:59 10° S 02:43:12 69° WSW 02:48:26 10° NNW
Envisat 3.0 02:38:49 10° NNE 02:43:55 82° WNW 02:48:58 10° SSW
Cosmos 1420 Rocket 4.3 02:40:10 10° SSW 02:45:23 70° ESE 02:50:36 10° NNE
SL-23 DEB 3.7 02:43:38 10° W 02:46:47 71° N 02:50:44 10° ENE
SAR-Lupe-3 4.4 02:44:04 10° S 02:46:54 44° W 02:49:46 10° NNW
Cosmos 2278 Rocket 4.0 02:46:19 10° NNW 02:51:37 38° NE 02:56:52 10° ESE
Cosmos 1190 Rocket 4.0 02:47:43 10° NNW 02:52:55 77° WSW 02:58:04 10° SSE
NOAA 11 4.4 02:48:33 10° N 02:53:55 61° WNW 02:59:15 10° SSW
Cosmos 1437 Rocket 3.7 02:50:23 10° N 02:54:00 49° ENE 02:57:32 10° SSE
USA 276 1.5 02:52:26 10° WSW 02:55:07 73° SSE 02:57:34 10° E
SL-16 R/B 2.6 02:49:33 10° S 02:55:49 75° WSW 03:02:07 10° NNW
Cosmos 2056 Rocket 4.0 02:52:49 10° S 02:57:54 59° ESE 03:02:56 10° NNE
SL-16 R/B 3.3 02:56:25 10° WSW 03:01:34 35° NW 03:06:45 10° NNE
